Grand Junction, CO

3:26 AM MDT on September 16, 2019 (GMT -0600)
Walker

Weather History for KGJT - April, 2019

Change the Weather History Date:

Sunday, April 21, 2019

  Actual Average Record
Temperature  
Mean Temperature 55 °F 53 °F  
Max Temperature 65 °F 67 °F 87 °F (1946)
Min Temperature 44 °F 40 °F 24 °F (1967)
Degree Days  
Heating Degree Days 10 12  
Month to date heating degree days 240 309  
Since 1 July heating degree days 5348 5341  
Cooling Degree Days 0 0  
Month to date cooling degree days 0 0  
Year to date cooling degree days 0 0  
Growing Degree Days 4 (Base 50)    
Moisture  
Dew Point 40 °F    
Average Humidity 66    
Maximum Humidity 86    
Minimum Humidity 46    
Precipitation  
Precipitation 0.32 in 0.03 in 0.32 in (2019)
Month to date precipitation 0.38 0.66  
Year to date precipitation 4.11 2.70  
Snow  
Snow T in 0.00 in 0.40 in (1970)
Month to date snowfall T 0.8  
Since 1 July snowfall 17.4 18.9  
Snow Depth 0.00 in    
Sea Level Pressure  
Sea Level Pressure 29.79 in    
Wind  
Wind Speed 9 mph (East)    
Max Wind Speed 33 mph    
Max Gust Speed 49 mph    
Visibility 9 miles    
Events Rain , Thunderstorm    
T = Trace of Precipitation, MM = Missing Value Source: NWS Daily Summary

Daily Weather History Graph

Daily Weather History Graph

Search for Another Location

Airport or City:

Astronomy

Apr. 21, 2019 Rise Set
Actual Time 6:29 AM MDT 7:57 PM MDT
Civil Twilight 6:01 AM MDT 8:25 PM MDT
Nautical Twilight 5:27 AM MDT 8:59 PM MDT
Astronomical Twilight 4:51 AM MDT 9:34 PM MDT
Moon 10:40 PM MDT (4/21) 8:12 AM MDT (4/21)
Length of Visible Light 14h 24m
Length of Day
13h 28m
Waning Gibbous, 93% of the Moon is Illuminated
Apr 21
Waning Gibbous
Apr 26
Last Quarter
May 4
New
May 11
First Quarter
May 18
Full

Hourly Weather History & Observations

Time (MDT) Temp. Windchill Dew Point Humidity Pressure Visibility Wind Dir Wind Speed Gust Speed Precip Events Conditions
12:53 AM 54.0 °F - 33.1 °F 45% 29.66 in 10.0 mi ESE 11.5 mph - N/A   Clear
1:53 AM 52.0 °F - 34.0 °F 50% 29.67 in 10.0 mi ESE 15.0 mph - N/A   Clear
2:53 AM 50.0 °F - 34.0 °F 54% 29.66 in 10.0 mi East 12.7 mph - N/A   Clear
3:53 AM 50.0 °F - 34.0 °F 54% 29.66 in 10.0 mi East 15.0 mph - N/A   Clear
4:53 AM 51.1 °F - 34.0 °F 52% 29.69 in 10.0 mi South 5.8 mph - N/A   Mostly Cloudy
5:53 AM 51.1 °F - 34.0 °F 52% 29.73 in 10.0 mi ENE 4.6 mph - N/A   Mostly Cloudy
6:53 AM 50.0 °F - 41.0 °F 71% 29.76 in 9.0 mi NNE 4.6 mph - 0.01 in Rain Light Rain
7:53 AM 48.9 °F - 44.1 °F 83% 29.81 in 7.0 mi East 10.4 mph - 0.02 in Rain Rain
8:53 AM 50.0 °F - 45.0 °F 83% 29.81 in 10.0 mi East 6.9 mph - 0.03 in Rain Light Rain
9:53 AM 50.0 °F - 45.0 °F 83% 29.85 in 9.0 mi South 11.5 mph 20.7 mph 0.00 in Rain Light Rain
10:16 AM 48.9 °F - 45.0 °F 86% 29.92 in 10.0 mi East 16.1 mph - 0.00 in Rain Light Rain
10:53 AM 51.1 °F - 44.1 °F 77% 29.81 in 10.0 mi ESE 13.8 mph - 0.00 in   Mostly Cloudy
11:53 AM 59.0 °F - 42.1 °F 53% 29.79 in 10.0 mi East 5.8 mph - N/A   Clear
12:53 PM 62.1 °F - 43.0 °F 50% 29.76 in 10.0 mi NE 12.7 mph - N/A   Clear
1:53 PM 63.0 °F - 42.1 °F 46% 29.73 in 10.0 mi East 5.8 mph - N/A   Scattered Clouds
2:11 PM 63.0 °F - 41.0 °F 45% 29.90 in 10.0 mi SW 13.8 mph 23.0 mph N/A Thunderstorm Mostly Cloudy
2:20 PM 55.0 °F - 39.0 °F 55% 29.93 in 10.0 mi SW 31.1 mph 48.3 mph 0.00 in Rain , Thunderstorm Light Thunderstorms and Rain
2:28 PM 48.9 °F - 39.9 °F 71% 29.92 in 1.8 mi SSW 4.6 mph 38.0 mph 0.07 in Rain , Thunderstorm Heavy Thunderstorms and Rain
2:37 PM 44.1 °F 39.0 °F 37.9 °F 79% 29.91 in 3.0 mi North 9.2 mph - 0.21 in Rain , Thunderstorm Thunderstorms and Rain
2:53 PM 46.0 °F 39.9 °F 39.0 °F 76% 29.83 in 9.0 mi NE 13.8 mph - 0.26 in Rain Light Rain
3:04 PM 50.0 °F - 39.9 °F 68% 29.89 in 10.0 mi ENE 16.1 mph - 0.00 in   Mostly Cloudy
3:53 PM 55.9 °F - 44.1 °F 64% 29.77 in 10.0 mi ENE 9.2 mph - 0.00 in   Clear
4:53 PM 63.0 °F - 41.0 °F 45% 29.72 in 10.0 mi Variable 3.5 mph - N/A   Clear
5:53 PM 63.0 °F - 42.1 °F 46% 29.72 in 10.0 mi NNE 9.2 mph - N/A   Partly Cloudy
6:53 PM 60.1 °F - 41.0 °F 49% 29.74 in 10.0 mi NE 15.0 mph - N/A   Scattered Clouds
7:53 PM 57.0 °F - 39.0 °F 51% 29.78 in 10.0 mi East 8.1 mph - N/A   Mostly Cloudy
8:53 PM 55.9 °F - 37.0 °F 49% 29.79 in 10.0 mi ENE 15.0 mph - N/A   Partly Cloudy
9:53 PM 55.9 °F - 39.0 °F 53% 29.81 in 10.0 mi NE 10.4 mph 23.0 mph N/A   Partly Cloudy
10:53 PM 55.0 °F - 39.0 °F 55% 29.83 in 10.0 mi NW 8.1 mph - N/A   Partly Cloudy
11:53 PM 51.1 °F - 39.0 °F 63% 29.83 in 10.0 mi NW 5.8 mph - N/A   Clear